Volver al catálogo

ARIANE 6 R/B

ActivoVLEO
NORAD 60239·ROCKET BODY·🇫🇷 France

Lanzado Jul 9, 2024 desde Guiana Space Centre

Loading…

Próximos Pases (próximas 24 horas)

TLE

ActualizadoSource: Space-Track

Época: Sep 14, 2026, 02:46 UTC

1 60239U 24128E   26257.11543808  .00000649  00000-0  66946-4 0  9993
2 60239  62.0108 282.6661 0030733 157.3649 202.8805 15.00597551119375

Sigue ARIANE 6 R/B en tiempo real con AllMySat

Download on the App Store